Tracking 31027 objects as of 19-Jul-2025
HD Live streaming from Space Station
objects crossing your sky now

SL-8 DEB

Track SL-8 DEB now!
10-day predictions


NORAD ID: 21955
Int'l Code: 1991-009CF
Perigee: 1,521.0 km
Apogee: 1,781.2 km
Inclination: 74.3 °
Period: 119.2 minutes
Semi major axis: 8022 km
RCS: 0.0532 m2 (small)
Launch date: February 12, 1991
Source: Commonwealth of Independent States (former USSR) (CIS)
Launch site: PLESETSK MISSILE AND SPACE COMPLEX (PKMTR)

Note: This is SATELLITE DEBRIS
Your satellite tracking list
PRISMA
Track 1 satellite(s)




NASA's NSSDC Master Catalog

Two Line Element Set (TLE):
1 21955U 91009CF  25199.80391380 -.00000030  00000-0 -19356-3 0  9991
2 21955  74.2980 132.8074 0162162 157.1616 236.7213 12.08295738515273
Source of the keplerian elements: AFSPC